DW8454 Weather Reports


Display with metric or nautical units.
time (UTC)temp
F
wind
direction
speed
MPH
gust
MPH
rain 1hr
in
rain 24hr
in
rain mn
in
humidity
%
barometer
mb
20260503031554 43 204 0.0 0.0 0.00 0.43 0.43 70 1016.5
20260503024326 43 198 0.0 0.0 0.00 0.43 0.43 68 1016.7
20260503023324 43 185 0.0 0.0 0.00 0.43 0.43 67 1016.7
20260503022316 44 192 0.0 0.0 0.00 0.43 0.43 66 1016.8
20260503021313 44 204 0.0 0.0 0.00 0.43 0.43 66 1016.7
20260503020331 44 197 0.0 0.0 0.00 0.43 0.43 65 1016.7
20260503015347 44 194 0.0 0.0 0.00 0.43 0.43 65 1016.7
20260503014337 44 197 0.0 0.0 0.00 0.43 0.43 64 1016.7
20260503013400 44 197 0.0 0.0 0.00 0.43 0.43 65 1016.7
20260503012423 44 197 0.0 0.0 0.00 0.43 0.43 64 1016.6
20260503011406 43 254 0.0 0.0 0.00 0.43 0.43 77 1016.6
20260503010344 43 254 0.0 0.0 0.00 0.43 0.43 72 1016.5
20260503005409 43 279 0.0 0.0 0.00 0.43 0.43 70 1016.6
20260503004405 43 280 0.0 0.0 0.00 0.43 0.43 70 1016.5
20260503003409 43 280 0.0 0.0 0.00 0.43 0.43 69 1016.4
20260503002429 43 281 0.0 0.0 0.00 0.43 0.43 70 1016.4
20260503001436 43 284 0.0 0.0 0.00 0.43 0.43 67 1016.5
20260503000447 43 271 0.0 0.0 0.00 0.43 0.43 67 1016.4
20260502235451 43 309 0.0 0.0 0.00 0.43 0.43 66 1016.4
20260502234457 43 309 0.0 0.0 0.00 0.43 0.43 66 1016.4
20260502232338 43 304 0.0 0.0 0.00 0.43 0.43 65 1016.4
20260502231312 43 331 0.0 0.0 0.00 0.43 0.43 68 1016.4
20260502230315 43 306 0.0 0.0 0.00 0.43 0.43 67 1016.5
20260502225250 44 309 0.0 0.0 0.00 0.43 0.43 66 1016.5
20260502224245 44 309 0.0 7.0 0.00 0.43 0.43 64 1016.5
20260502222201 43 305 0.0 0.0 0.00 0.43 0.43 60 1016.6
20260502221210 45 309 0.0 0.0 0.00 0.43 0.43 58 1016.6
20260502220223 46 315 0.0 0.0 0.00 0.43 0.43 59 1016.6
20260502215247 46 324 0.0 0.0 0.00 0.43 0.43 61 1016.6
20260502214311 46 302 0.0 0.0 0.00 0.43 0.43 59 1016.6
20260502213250 46 318 0.0 0.0 0.00 0.43 0.43 59 1016.5
20260502212251 46 296 0.0 0.0 0.00 0.43 0.43 60 1016.6
20260502211314 46 303 0.0 0.0 0.00 0.43 0.43 61 1016.5
20260502210253 45 279 0.0 0.0 0.00 0.43 0.43 63 1016.6
20260502205310 45 290 0.0 0.0 0.00 0.43 0.43 64 1016.6
20260502204312 45 23 0.0 0.0 0.00 0.43 0.43 65 1016.7
20260502203253 44 276 0.0 0.0 0.00 0.43 0.43 66 1016.7
20260502201121 44 325 0.0 0.0 0.00 0.43 0.43 65 1016.9
20260502200057 44 314 0.0 0.0 0.00 0.43 0.43 65 1016.9
20260502195108 44 322 0.0 0.0 0.00 0.43 0.43 64 1017.0
20260502194120 44 309 0.0 0.0 0.00 0.43 0.43 62 1017.0
20260502193110 45 333 0.0 0.0 0.00 0.43 0.43 61 1017.1
20260502192114 46 300 0.0 0.0 0.00 0.43 0.43 59 1017.1
20260502191133 48 321 0.0 0.0 0.00 0.43 0.43 59 1017.1
20260502190215 48 290 0.0 0.0 0.00 0.43 0.43 60 1017.1
20260502185114 47 273 0.0 0.0 0.00 0.44 0.43 61 1017.3
20260502184116 47 317 0.0 0.0 0.00 0.44 0.43 62 1017.3
20260502182107 48 300 0.0 0.0 0.00 0.44 0.43 62 1017.4
20260502181113 47 339 0.0 0.0 0.00 0.44 0.43 61 1017.4
20260502180121 47 296 0.0 0.0 0.00 0.45 0.43 62 1017.5
20260502163816 44 17 0.0 0.0 0.00 0.66 0.43 67 1017.8
20260502162827 44 17 0.0 0.0 0.00 0.66 0.43 66 1017.8
20260502161757 46 5 0.0 0.0 0.00 0.66 0.43 71 1017.8
20260502151552 41 303 0.0 0.0 0.00 0.66 0.43 86 1017.8
20260502150603 41 59 0.0 0.0 0.00 0.66 0.43 87 1017.7
20260502130330 37 5 0.0 0.0 0.00 0.66 0.43 91 1017.2
20260502123153 36 57 0.0 0.0 0.00 0.66 0.43 90 1017.2
20260502122202 36 0 0.0 0.0 0.00 0.66 0.43 91 1017.2
20260502121132 37 332 0.0 0.0 0.00 0.66 0.43 90 1017.1
20260502115107 37 296 0.0 0.0 0.00 0.66 0.43 91 1016.8
20260502114120 37 11 0.0 0.0 0.00 0.66 0.43 91 1016.7
20260502113112 37 15 0.0 0.0 0.00 0.66 0.43 91 1016.6
20260502112039 37 28 0.0 0.0 0.00 0.66 0.43 91 1016.5
20260502111022 37 36 0.0 0.0 0.00 0.66 0.43 91 1016.5
20260502104908 38 30 0.0 0.0 0.00 0.66 0.43 91 1016.2
20260502103928 38 21 0.0 0.0 0.00 0.66 0.43 91 1016.0
20260502102947 38 328 0.0 0.0 0.00 0.66 0.43 91 1015.9
20260502100951 39 121 0.0 0.0 0.00 0.66 0.43 91 1015.7
20260502071442 38 105 0.0 0.0 0.00 0.66 0.43 91 1015.4
20260502070455 38 95 0.0 0.0 0.00 0.66 0.43 91 1015.5
20260502065443 38 100 0.0 0.0 0.00 0.66 0.43 91 1015.5
20260502064453 38 101 0.0 0.0 0.00 0.66 0.43 91 1015.6
20260502063432 37 65 0.0 0.0 0.00 0.66 0.43 90 1015.6
20260502061326 36 111 0.0 0.0 0.04 0.66 0.43 100 1015.6
20260502060336 36 114 0.0 0.0 0.04 0.65 0.43 100 1015.8
20260502055353 36 112 0.0 0.0 0.05 0.65 0.43 100 1015.9
20260502053138 39 33 0.0 0.0 0.00 0.23 0.00 90 1016.2
20260502052116 39 330 0.0 0.0 0.00 0.23 0.00 90 1016.3
20260502051118 39 0 0.0 0.0 0.00 0.23 0.00 90 1016.3
20260502050131 39 105 0.0 0.0 0.00 0.23 0.00 90 1016.0
20260502045150 39 87 0.0 0.0 0.00 0.23 0.00 90 1016.1
20260502044129 39 105 0.0 0.0 0.00 0.23 0.00 90 1016.1
20260502043114 40 101 0.0 0.0 0.00 0.23 0.00 90 1016.2
20260502042105 40 107 0.0 0.0 0.00 0.23 0.00 90 1016.3
20260502041118 40 101 0.0 0.0 0.00 0.23 0.00 90 1016.3
20260502040100 40 101 0.0 0.0 0.00 0.23 0.00 90 1016.3